QPF
0.00 0.00 0.00 0.00 0.00 0.00 0.00 0.00 0.00 0.00 0.00 0.00 0.00 0.00 0.00 0.00 0.00 0.00 0.00 0.00 0.00 0.00 0.00 0.00 0.01 0.00 0.00 0.00 0.00 0.00 0.00 0.00 0.00 0.00 0.00 0.02 0.04 0.01 0.02 0.01 0.00 0.00 0.00 0.00 0.00 0.00 0.00 0.00 0.00
0.00 0.00 0.00 0.00 0.00 0.00 0.00 0.00 0.00 0.00 0.00 0.00 0.00 0.00 0.00 0.00 0.00 0.00 0.00 0.00 0.00 0.00 0.00 0.00 0.00 0.00 0.00 0.00 0.00 0.00 0.00 0.00 0.00 0.00 0.00 0.01 0.04 0.00 0.00 0.00 0.00 0.00 0.00 0.00 0.00 0.00 0.00 0.00 0.00
0.00 0.00 0.00 0.00 0.00 0.00 0.00 0.00 0.00 0.00 0.00 0.00 0.00 0.00 0.00 0.00 0.00 0.00 0.00 0.00 0.00 0.00 0.00 0.00 0.02 0.03 0.01 0.00 0.00 0.00 0.00 0.00 0.00 0.00 0.00 0.00 0.00 0.00 0.00 0.01 0.00 0.00 0.00 0.00 0.00 0.00 0.00 0.00 0.00
0.00 0.00 0.00 0.00 0.00 0.00 0.00 0.00 0.00 0.00 0.00 0.00 0.00 0.00 0.00 0.00 0.00 0.00 0.00 0.00 0.00 0.00 0.00 0.00 0.01 0.04 0.02 0.00 0.00 0.00 0.00 0.00 0.00 0.00 0.00 0.00 0.00 0.00 0.00 0.01 0.01 0.00 0.00 0.00 0.00 0.00 0.00 0.00 0.00
0.00 0.00 0.00 0.00 0.00 0.00 0.00 0.00 0.00 0.00 0.00 0.00 0.00 0.00 0.00 0.00 0.00 0.00 0.00 0.00 0.00 0.00 0.00 0.00 0.01 0.02 0.02 0.00 0.01 0.00 0.01 0.02 0.01 0.01 0.00 0.00 0.00 0.00 0.00 0.00 0.01 0.00 0.00 0.00 0.00 0.00 0.00 0.00 0.00
0.00 0.00 0.00 0.00 0.00 0.00 0.00 0.00 0.00 0.00 0.00 0.00 0.00 0.00 0.00 0.00 0.00 0.00 0.00 0.00 0.00 0.00 0.00 0.00 0.00 0.00 0.00 0.00 0.00 0.00 0.00 0.00 0.00 0.01 0.02 0.02 0.01 0.00 0.00 0.00 0.02 0.02 0.01 0.00 0.00 0.00 0.00 0.00 0.00
0.00 0.00 0.00 0.00 0.00 0.00 0.00 0.00 0.00 0.00 0.00 0.00 0.00 0.00 0.00 0.00 0.00 0.00 0.00 0.00 0.00 0.00 0.00 0.00 0.00 0.00 0.00 0.00 0.00 0.00 0.00 0.00 0.00 0.00 0.00 0.00 0.00 0.00 0.00 0.00 0.00 0.01 0.03 0.03 0.01 0.00 0.00 0.00 0.00
0.00 0.00 0.00 0.00 0.00 0.00 0.00 0.00 0.00 0.00 0.00 0.00 0.00 0.00 0.00 0.00 0.00 0.00 0.00 0.00 0.00 0.00 0.00 0.00 0.00 0.00 0.00 0.00 0.00 0.00 0.00 0.00 0.00 0.00 0.00 0.00 0.00 0.00 0.00 0.00 0.00 0.01 0.01 0.02 0.03 0.02 0.02 0.02 0.02
0.00 0.00 0.00 0.00 0.00 0.00 0.00 0.00 0.00 0.00 0.00 0.00 0.00 0.00 0.00 0.00 0.00 0.00 0.00 0.00 0.00 0.00 0.00 0.00 0.00 0.00 0.00 0.00 0.00 0.00 0.00 0.00 0.00 0.00 0.00 0.00 0.00 0.00 0.00 0.00 0.00 0.00 0.00 0.01 0.02 0.04 0.05 0.02 0.00
0.00 0.00 0.00 0.00 0.00 0.00 0.00 0.00 0.00 0.00 0.00 0.00 0.00 0.00 0.00 0.00 0.00 0.00 0.00 0.00 0.00 0.00 0.00 0.00 0.00 0.00 0.00 0.00 0.00 0.00 0.00 0.00 0.00 0.00 0.00 0.00 0.00 0.00 0.00 0.00 0.00 0.00 0.00 0.00 0.00 0.01 0.02 0.02 0.02
0.00 0.00 0.00 0.00 0.00 0.00 0.00 0.00 0.00 0.00 0.00 0.00 0.00 0.00 0.00 0.00 0.00 0.00 0.00 0.00 0.00 0.00 0.00 0.00 0.00 0.00 0.00 0.00 0.00 0.00 0.00 0.00 0.00 0.00 0.00 0.00 0.00 0.00 0.00 0.00 0.00 0.00 0.00 0.00 0.00 0.00 0.00 0.00 0.00
0.00 0.00 0.00 0.00 0.00 0.00 0.00 0.00 0.00 0.00 0.00 0.00 0.00 0.00 0.00 0.00 0.00 0.00 0.00 0.00 0.00 0.00 0.00 0.00 0.00 0.00 0.00 0.00 0.00 0.00 0.00 0.00 0.00 0.00 0.00 0.00 0.00 0.00 0.00 0.00 0.00 0.00 0.00 0.00 0.00 0.00 0.00 0.00 0.00
0.00 0.00 0.00 0.00 0.00 0.00 0.00 0.00 0.00 0.00 0.00 0.00 0.00 0.00 0.00 0.00 0.00 0.00 0.00 0.00 0.00 0.00 0.00 0.00 0.00 0.00 0.00 0.00 0.00 0.00 0.00 0.00 0.00 0.00 0.00 0.00 0.00 0.00 0.00 0.00 0.00 0.00 0.00 0.00 0.00 0.00 0.00 0.00 0.00
0.00 0.00 0.00 0.00 0.00 0.00 0.00 0.00 0.00 0.00 0.00 0.00 0.00 0.00 0.00 0.00 0.00 0.00 0.00 0.00 0.00 0.00 0.00 0.00 0.00 0.00 0.00 0.00 0.00 0.00 0.00 0.00 0.00 0.00 0.00 0.00 0.00 0.00 0.00 0.00 0.00 0.00 0.00 0.00 0.00 0.00 0.00 0.00 0.00
0.00 0.00 0.00 0.00 0.00 0.00 0.00 0.00 0.00 0.00 0.00 0.00 0.00 0.00 0.00 0.00 0.00 0.00 0.00 0.00 0.00 0.00 0.00 0.00 0.00 0.00 0.00 0.00 0.00 0.00 0.00 0.00 0.00 0.00 0.00 0.00 0.00 0.00 0.00 0.00 0.00 0.00 0.00 0.00 0.00 0.00 0.00 0.00 0.00
0.00 0.00 0.00 0.00 0.00 0.00 0.00 0.00 0.00 0.00 0.00 0.00 0.00 0.00 0.00 0.00 0.00 0.00 0.00 0.00 0.00 0.00 0.00 0.00 0.00 0.00 0.00 0.00 0.00 0.00 0.00 0.00 0.00 0.00 0.00 0.00 0.00 0.00 0.00 0.00 0.00 0.00 0.00 0.00 0.00 0.00 0.00 0.00 0.00
0.00 0.00 0.00 0.00 0.00 0.00 0.00 0.00 0.00 0.00 0.00 0.00 0.00 0.00 0.00 0.00 0.00 0.00 0.00 0.00 0.00 0.00 0.00 0.00 0.00 0.00 0.00 0.00 0.00 0.00 0.00 0.00 0.00 0.00 0.00 0.00 0.00 0.00 0.00 0.00 0.00 0.00 0.00 0.00 0.00 0.00 0.00 0.00 0.00
0.00 0.00 0.00 0.00 0.00 0.00 0.00 0.00 0.00 0.00 0.00 0.00 0.00 0.00 0.00 0.00 0.00 0.00 0.00 0.00 0.00 0.00 0.00 0.00 0.00 0.00 0.00 0.00 0.00 0.00 0.00 0.00 0.00 0.00 0.00 0.00 0.00 0.00 0.00 0.00 0.00 0.00 0.00 0.00 0.00 0.00 0.00 0.00 0.00
0.00 0.00 0.00 0.00 0.00 0.00 0.00 0.00 0.00 0.00 0.00 0.00 0.00 0.00 0.00 0.00 0.00 0.00 0.00 0.00 0.00 0.00 0.00 0.00 0.00 0.00 0.00 0.00 0.00 0.00 0.00 0.00 0.00 0.00 0.00 0.00 0.00 0.00 0.00 0.00 0.00 0.00 0.00 0.00 0.00 0.00 0.00 0.00 0.00
0.00 0.00 0.00 0.00 0.00 0.00 0.00 0.00 0.00 0.00 0.00 0.00 0.00 0.00 0.00 0.00 0.00 0.00 0.00 0.00 0.00 0.00 0.00 0.00 0.00 0.00 0.00 0.00 0.00 0.00 0.00 0.00 0.00 0.00 0.00 0.00 0.00 0.00 0.00 0.00 0.00 0.00 0.00 0.00 0.00 0.00 0.00 0.00 0.00
0.00 0.00 0.00 0.00 0.00 0.00 0.00 0.00 0.00 0.00 0.00 0.00 0.00 0.00 0.00 0.00 0.00 0.00 0.00 0.00 0.00 0.00 0.00 0.00 0.00 0.00 0.00 0.00 0.00 0.00 0.00 0.00 0.00 0.00 0.00 0.00 0.00 0.00 0.00 0.00 0.00 0.00 0.00 0.00 0.00 0.00 0.00 0.00 0.00
0.00 0.00 0.00 0.00 0.00 0.00 0.00 0.00 0.00 0.00 0.00 0.00 0.00 0.00 0.00 0.00 0.00 0.00 0.00 0.00 0.00 0.00 0.00 0.00 0.00 0.00 0.00 0.00 0.00 0.00 0.00 0.00 0.00 0.00 0.00 0.00 0.00 0.00 0.00 0.00 0.00 0.00 0.00 0.00 0.00 0.00 0.00 0.00 0.00
0.00 0.00 0.00 0.00 0.00 0.00 0.00 0.00 0.00 0.00 0.00 0.00 0.00 0.00 0.00 0.00 0.00 0.00 0.00 0.00 0.00 0.00 0.00 0.00 0.00 0.00 0.00 0.00 0.00 0.00 0.00 0.00 0.00 0.00 0.00 0.00 0.00 0.00 0.00 0.00 0.00 0.00 0.00 0.00 0.00 0.00 0.00 0.00 0.00
0.00 0.00 0.00 0.00 0.00 0.00 0.00 0.00 0.00 0.00 0.00 0.00 0.00 0.00 0.00 0.00 0.00 0.00 0.00 0.00 0.00 0.00 0.00 0.00 0.00 0.00 0.00 0.00 0.00 0.00 0.00 0.00 0.00 0.00 0.00 0.00 0.00 0.00 0.00 0.00 0.00 0.00 0.00 0.00 0.00 0.00 0.00 0.00 0.00
0.00 0.00 0.00 0.00 0.00 0.00 0.00 0.00 0.00 0.00 0.00 0.00 0.00 0.00 0.00 0.00 0.00 0.00 0.00 0.00 0.00 0.00 0.00 0.00 0.00 0.00 0.00 0.00 0.00 0.00 0.00 0.00 0.00 0.00 0.00 0.00 0.00 0.00 0.00 0.00 0.00 0.00 0.00 0.00 0.00 0.00 0.00 0.00 0.00
0.00 0.00 0.00 0.00 0.00 0.00 0.00 0.00 0.00 0.00 0.00 0.00 0.00 0.00 0.00 0.00 0.00 0.00 0.00 0.00 0.00 0.00 0.00 0.00 0.00 0.00 0.00 0.00 0.00 0.00 0.00 0.00 0.00 0.00 0.00 0.00 0.00 0.00 0.00 0.00 0.00 0.00 0.00 0.00 0.00 0.00 0.00 0.00 0.00
0.00 0.00 0.00 0.00 0.00 0.00 0.00 0.00 0.00 0.00 0.00 0.00 0.00 0.00 0.00 0.00 0.00 0.00 0.00 0.00 0.00 0.00 0.00 0.00 0.00 0.00 0.00 0.00 0.00 0.00 0.00 0.00 0.00 0.00 0.00 0.00 0.00 0.00 0.00 0.00 0.00 0.00 0.00 0.00 0.00 0.00 0.00 0.00 0.00
0.00 0.00 0.00 0.00 0.00 0.00 0.00 0.00 0.00 0.00 0.00 0.00 0.00 0.00 0.00 0.00 0.00 0.00 0.00 0.00 0.00 0.00 0.00 0.00 0.00 0.00 0.00 0.00 0.00 0.00 0.00 0.00 0.00 0.00 0.00 0.00 0.00 0.00 0.00 0.00 0.00 0.00 0.00 0.00 0.00 0.00 0.00 0.00 0.00
0.00 0.00 0.00 0.00 0.00 0.00 0.00 0.00 0.00 0.00 0.00 0.00 0.00 0.00 0.00 0.00 0.00 0.00 0.00 0.00 0.00 0.00 0.00 0.00 0.00 0.00 0.00 0.00 0.00 0.00 0.00 0.00 0.00 0.00 0.00 0.00 0.00 0.00 0.00 0.00 0.00 0.00 0.00 0.00 0.00 0.00 0.00 0.00 0.00
0.00 0.00 0.00 0.00 0.00 0.00 0.00 0.00 0.00 0.00 0.00 0.00 0.00 0.00 0.00 0.00 0.00 0.00 0.00 0.00 0.00 0.00 0.00 0.00 0.00 0.00 0.00 0.00 0.00 0.00 0.00 0.00 0.00 0.00 0.00 0.00 0.00 0.00 0.00 0.00 0.00 0.00 0.00 0.00 0.00 0.00 0.00 0.00 0.00
MSLP
1013.65 1013.80 1014.01 1014.05 1015.59 1016.45 1016.19 1015.77 1015.30 1015.18 1015.54 1015.67 1015.68 1015.97 1016.44 1017.11 1017.12 1018.02 1017.54 1017.41 1017.24 1017.51 1017.64 1017.77 1017.86 1018.03 1018.19 1018.24 1018.34 1018.34 1018.32 1018.41 1018.41 1018.41 1018.31 1018.20 1018.24 1018.25 1018.18 1018.20 1018.23 1018.30 1018.38 1018.41 1018.43 1018.48 1018.53 1018.61 1018.66
1013.86 1014.06 1014.22 1015.06 1016.09 1016.86 1016.42 1015.77 1015.43 1015.36 1015.87 1016.01 1016.15 1016.63 1017.04 1017.68 1017.37 1017.55 1017.60 1017.45 1017.25 1017.41 1017.60 1017.85 1017.98 1018.12 1018.22 1018.29 1018.38 1018.40 1018.36 1018.44 1018.53 1018.52 1018.45 1018.42 1018.30 1018.24 1018.29 1018.26 1018.29 1018.35 1018.44 1018.53 1018.57 1018.65 1018.69 1018.72 1018.77
1014.03 1014.14 1014.99 1015.68 1016.48 1016.67 1016.17 1015.49 1015.31 1015.64 1015.94 1016.21 1016.79 1017.31 1017.66 1017.96 1017.68 1017.73 1017.59 1017.47 1017.40 1017.43 1017.54 1017.85 1018.00 1018.12 1018.18 1018.29 1018.38 1018.42 1018.46 1018.45 1018.55 1018.55 1018.53 1018.54 1018.44 1018.36 1018.27 1018.28 1018.29 1018.39 1018.47 1018.54 1018.58 1018.65 1018.70 1018.73 1018.78
1014.43 1014.78 1015.73 1015.74 1016.40 1016.03 1015.64 1015.34 1015.43 1015.99 1016.28 1016.48 1017.00 1017.86 1018.16 1018.17 1017.83 1017.90 1017.69 1017.52 1017.59 1017.62 1017.67 1017.93 1018.10 1018.21 1018.29 1018.36 1018.48 1018.52 1018.53 1018.58 1018.54 1018.55 1018.55 1018.53 1018.53 1018.47 1018.41 1018.29 1018.24 1018.34 1018.43 1018.49 1018.51 1018.54 1018.62 1018.70 1018.71
1014.76 1015.29 1016.23 1016.57 1016.27 1015.80 1015.42 1015.28 1015.58 1016.04 1016.46 1016.83 1017.14 1017.90 1018.24 1018.12 1017.91 1017.95 1017.91 1017.75 1017.78 1018.01 1017.98 1018.17 1018.32 1018.45 1018.50 1018.54 1018.60 1018.64 1018.63 1018.62 1018.63 1018.59 1018.54 1018.53 1018.52 1018.50 1018.45 1018.35 1018.29 1018.33 1018.40 1018.43 1018.44 1018.45 1018.50 1018.57 1018.63
1015.42 1015.71 1016.63 1016.82 1016.22 1015.67 1015.35 1015.34 1015.69 1016.30 1016.56 1017.05 1017.35 1017.67 1018.23 1018.13 1018.15 1018.16 1018.19 1018.19 1018.06 1018.27 1018.38 1018.65 1018.82 1018.91 1018.91 1018.87 1018.92 1018.95 1018.86 1018.78 1018.76 1018.74 1018.65 1018.62 1018.58 1018.54 1018.49 1018.43 1018.38 1018.33 1018.28 1018.31 1018.34 1018.33 1018.34 1018.38 1018.40
1015.47 1016.11 1016.56 1016.52 1016.21 1015.80 1015.48 1015.53 1015.99 1016.51 1016.78 1017.34 1017.46 1018.16 1018.43 1018.32 1018.27 1018.43 1018.44 1018.35 1018.52 1018.63 1018.73 1019.14 1019.27 1019.28 1019.35 1019.32 1019.24 1019.28 1019.28 1019.16 1019.03 1019.01 1018.92 1018.81 1018.70 1018.62 1018.54 1018.50 1018.43 1018.31 1018.20 1018.14 1018.17 1018.15 1018.11 1018.09 1018.09
1015.27 1016.17 1017.09 1016.61 1016.28 1015.97 1015.58 1015.73 1016.21 1016.51 1017.16 1017.61 1017.55 1017.98 1018.33 1018.15 1018.45 1018.69 1018.75 1018.88 1018.96 1019.16 1019.26 1019.59 1019.61 1019.78 1019.91 1019.84 1019.69 1019.63 1019.63 1019.58 1019.48 1019.40 1019.34 1019.18 1019.00 1018.87 1018.74 1018.62 1018.50 1018.22 1018.07 1017.94 1017.84 1017.84 1017.81 1017.76 1017.75
1015.08 1016.34 1017.20 1016.66 1016.12 1015.86 1015.58 1015.77 1016.44 1016.76 1017.21 1017.66 1017.74 1017.79 1017.65 1018.12 1018.69 1019.07 1019.19 1019.30 1019.47 1019.59 1019.82 1020.17 1020.15 1020.19 1020.16 1020.05 1020.12 1019.97 1019.89 1019.89 1019.84 1019.74 1019.61 1019.51 1019.46 1019.34 1019.13 1018.97 1018.70 1018.41 1018.25 1018.03 1017.81 1017.60 1017.54 1017.42 1017.48
1015.32 1016.52 1016.69 1015.92 1015.46 1015.47 1015.53 1015.60 1016.30 1017.07 1017.50 1017.89 1018.06 1017.96 1018.12 1018.43 1018.97 1019.32 1019.51 1019.67 1019.89 1020.06 1020.34 1020.47 1020.46 1020.51 1020.44 1020.23 1020.46 1020.39 1020.28 1020.32 1020.22 1020.11 1019.96 1019.83 1019.72 1019.61 1019.44 1019.27 1018.97 1018.73 1018.53 1018.26 1017.87 1017.74 1017.63 1017.45 1017.29
1015.62 1016.40 1016.51 1016.08 1015.53 1015.26 1015.57 1016.13 1016.49 1016.80 1017.64 1017.70 1017.82 1018.17 1018.61 1019.05 1019.41 1019.62 1019.82 1019.87 1019.93 1020.17 1020.44 1020.66 1020.68 1020.74 1020.80 1020.80 1020.81 1020.73 1020.68 1020.70 1020.54 1020.36 1020.17 1020.01 1019.84 1019.72 1019.56 1019.45 1019.29 1019.04 1018.79 1018.62 1018.36 1018.13 1017.89 1017.71 1017.51
1015.79 1016.63 1016.68 1016.30 1015.77 1015.63 1015.79 1016.24 1016.67 1016.99 1017.37 1017.43 1017.75 1018.36 1018.80 1019.35 1019.61 1019.86 1019.99 1019.93 1020.04 1020.28 1020.51 1020.74 1020.90 1020.95 1021.01 1021.05 1021.08 1021.01 1020.95 1020.92 1020.82 1020.63 1020.36 1020.22 1020.08 1019.91 1019.80 1019.69 1019.51 1019.36 1019.15 1018.94 1018.73 1018.55 1018.25 1017.92 1017.67
1016.24 1016.98 1017.04 1016.77 1016.39 1016.25 1016.01 1016.54 1016.87 1017.38 1017.61 1017.66 1018.09 1018.61 1019.09 1019.45 1019.69 1019.91 1019.98 1020.02 1020.11 1020.41 1020.55 1020.83 1020.97 1021.07 1021.06 1021.12 1021.22 1021.14 1021.13 1021.09 1020.98 1020.79 1020.57 1020.36 1020.31 1020.21 1020.00 1019.83 1019.64 1019.47 1019.25 1019.07 1018.89 1018.68 1018.41 1018.14 1017.84
1016.67 1017.20 1017.51 1017.32 1017.00 1016.88 1016.52 1016.97 1016.92 1017.68 1017.87 1018.31 1018.51 1018.91 1019.30 1019.45 1019.65 1020.00 1020.09 1020.11 1020.28 1020.45 1020.59 1020.85 1021.03 1021.08 1021.12 1021.24 1021.25 1021.27 1021.19 1021.11 1020.98 1020.88 1020.69 1020.46 1020.38 1020.28 1020.04 1019.88 1019.67 1019.46 1019.29 1019.07 1018.86 1018.69 1018.46 1018.22 1017.97
1017.04 1017.76 1017.81 1017.99 1017.50 1017.34 1017.06 1017.48 1017.50 1017.76 1018.19 1018.73 1019.11 1019.04 1019.57 1019.65 1019.75 1019.85 1019.80 1020.11 1020.41 1020.60 1020.72 1020.85 1020.90 1021.04 1021.19 1021.30 1021.29 1021.26 1021.20 1021.11 1021.09 1020.95 1020.74 1020.49 1020.31 1020.17 1020.03 1019.88 1019.68 1019.50 1019.23 1019.02 1018.80 1018.56 1018.35 1018.22 1017.92
1017.72 1018.25 1018.70 1018.58 1018.12 1017.55 1017.25 1017.69 1017.76 1018.16 1018.46 1019.05 1019.34 1019.47 1019.74 1019.72 1019.74 1019.79 1019.93 1020.22 1020.46 1020.62 1020.81 1020.85 1020.77 1020.93 1021.20 1021.31 1021.30 1021.24 1021.17 1021.19 1021.12 1020.95 1020.74 1020.49 1020.26 1020.06 1019.93 1019.80 1019.65 1019.44 1019.22 1018.97 1018.82 1018.65 1018.39 1018.19 1017.97
1019.12 1019.41 1019.48 1019.08 1018.72 1018.20 1017.75 1017.99 1018.08 1018.45 1018.99 1019.44 1019.64 1019.91 1019.93 1019.89 1019.88 1019.86 1019.93 1020.17 1020.43 1020.55 1020.67 1020.82 1020.86 1021.04 1021.25 1021.27 1021.23 1021.21 1021.20 1021.21 1021.14 1020.94 1020.71 1020.44 1020.23 1020.02 1019.90 1019.76 1019.56 1019.37 1019.18 1018.96 1018.83 1018.58 1018.49 1018.28 1017.92
1019.68 1020.21 1020.27 1019.88 1019.66 1019.05 1018.60 1018.47 1018.47 1018.68 1019.31 1019.75 1020.03 1020.16 1020.30 1020.14 1019.80 1019.83 1019.80 1020.05 1020.23 1020.40 1020.59 1020.75 1020.92 1021.07 1021.20 1021.29 1021.32 1021.30 1021.28 1021.18 1021.09 1020.92 1020.69 1020.35 1020.16 1019.92 1019.76 1019.64 1019.49 1019.27 1019.12 1018.97 1018.81 1018.60 1018.36 1018.19 1017.90
1019.51 1020.19 1020.87 1020.80 1020.39 1020.07 1019.82 1019.30 1018.77 1018.82 1019.30 1019.83 1020.20 1020.22 1020.27 1020.00 1019.71 1019.67 1019.66 1019.86 1020.18 1020.48 1020.69 1020.76 1020.93 1021.05 1021.19 1021.30 1021.53 1021.57 1021.67 1021.39 1021.17 1020.85 1020.57 1020.35 1020.18 1019.95 1019.74 1019.63 1019.41 1019.20 1019.14 1019.00 1018.80 1018.56 1018.40 1018.19 1017.84
1020.27 1020.74 1021.65 1021.57 1021.11 1020.77 1020.78 1019.88 1018.99 1018.98 1019.01 1019.34 1019.80 1020.08 1020.20 1020.08 1019.85 1019.68 1019.70 1019.96 1020.21 1020.51 1020.71 1020.80 1020.88 1021.03 1021.12 1021.21 1021.38 1021.54 1021.55 1021.40 1021.29 1020.92 1020.57 1020.29 1020.17 1019.92 1019.65 1019.63 1019.46 1019.20 1019.09 1018.93 1018.80 1018.65 1018.62 1018.36 1017.98
1021.84 1021.85 1022.10 1022.21 1022.30 1022.41 1022.06 1020.99 1019.55 1019.22 1019.18 1019.24 1019.45 1019.67 1019.79 1019.80 1019.70 1019.66 1019.76 1020.08 1020.34 1020.51 1020.66 1020.71 1020.73 1020.84 1020.99 1021.08 1021.23 1021.33 1021.36 1021.24 1021.18 1020.99 1020.53 1020.21 1020.08 1019.85 1019.70 1019.53 1019.34 1019.16 1019.03 1018.92 1018.84 1018.61 1018.59 1018.60 1018.21
1022.42 1022.61 1022.70 1023.25 1024.02 1024.31 1024.05 1022.84 1020.82 1020.06 1019.61 1019.55 1019.84 1019.82 1019.85 1019.73 1019.66 1019.70 1019.77 1020.00 1020.21 1020.26 1020.46 1020.54 1020.62 1020.65 1020.80 1020.87 1021.08 1021.36 1021.45 1021.54 1021.23 1020.96 1020.48 1020.11 1019.90 1019.80 1019.68 1019.51 1019.25 1019.05 1018.85 1018.64 1018.55 1018.42 1018.42 1018.48 1018.48
1023.07 1023.14 1023.75 1024.61 1025.49 1025.96 1025.80 1024.82 1021.72 1020.77 1020.26 1020.05 1020.09 1020.11 1019.99 1019.83 1019.78 1019.71 1019.80 1019.93 1020.04 1020.25 1020.30 1020.40 1020.45 1020.42 1020.60 1020.75 1020.98 1021.14 1021.24 1021.15 1020.93 1020.70 1020.28 1019.98 1019.75 1019.68 1019.52 1019.36 1019.21 1018.87 1018.50 1018.44 1018.33 1018.32 1018.27 1018.24 1018.28
1023.26 1023.73 1024.67 1025.72 1026.70 1028.00 1028.09 1026.83 1023.18 1021.70 1020.92 1020.48 1020.33 1020.31 1020.23 1020.09 1020.08 1020.00 1019.97 1020.03 1020.10 1020.18 1020.12 1020.25 1020.34 1020.24 1020.38 1020.57 1020.66 1020.75 1020.86 1020.89 1020.88 1020.57 1020.26 1019.80 1019.62 1019.41 1019.33 1019.30 1019.14 1018.84 1018.49 1018.39 1018.05 1018.00 1018.12 1018.12 1018.10
1023.62 1024.74 1026.34 1027.68 1028.43 1029.10 1028.99 1027.52 1023.45 1021.60 1021.03 1020.79 1020.86 1020.78 1020.60 1020.45 1020.41 1020.41 1020.29 1020.22 1020.20 1020.16 1020.04 1020.17 1020.14 1019.99 1020.11 1020.33 1020.40 1020.39 1020.42 1020.52 1020.57 1020.38 1020.16 1019.72 1019.43 1019.19 1019.02 1018.89 1018.92 1018.89 1018.45 1018.17 1017.80 1017.87 1017.96 1017.97 1017.98
1024.60 1025.27 1026.50 1028.11 1029.55 1029.49 1028.59 1026.28 1022.67 1021.58 1021.10 1020.93 1021.07 1021.13 1021.10 1020.97 1020.89 1020.79 1020.53 1020.35 1020.16 1019.95 1019.78 1019.88 1019.84 1019.64 1019.79 1019.92 1019.95 1020.06 1020.09 1020.08 1020.08 1020.02 1019.87 1019.53 1019.29 1019.14 1018.93 1018.84 1018.51 1018.41 1018.36 1018.05 1017.86 1017.81 1017.76 1017.79 1017.73
1024.77 1025.51 1026.23 1027.83 1029.98 1029.53 1027.69 1025.27 1022.87 1021.67 1021.37 1021.37 1021.50 1021.37 1021.45 1021.37 1021.14 1020.90 1020.43 1020.17 1019.94 1019.68 1019.55 1019.62 1019.55 1019.40 1019.43 1019.51 1019.61 1019.66 1019.77 1019.77 1019.67 1019.57 1019.62 1019.39 1019.07 1018.86 1018.68 1018.65 1018.72 1018.33 1018.11 1017.92 1017.94 1017.73 1017.58 1017.58 1017.50
1024.52 1025.39 1026.19 1027.33 1029.27 1029.52 1027.74 1025.95 1023.44 1022.46 1021.96 1021.73 1021.71 1021.66 1021.54 1021.44 1021.18 1020.88 1020.52 1020.09 1019.60 1019.40 1019.33 1019.35 1019.23 1019.14 1018.99 1019.06 1019.09 1019.10 1019.08 1019.17 1019.21 1019.21 1019.06 1018.94 1018.79 1018.72 1018.53 1018.47 1018.46 1018.27 1018.00 1017.78 1017.83 1017.59 1017.37 1017.38 1017.34
1025.07 1025.48 1026.33 1027.24 1028.37 1029.10 1028.19 1025.84 1023.02 1022.54 1022.15 1021.99 1021.93 1021.99 1022.04 1021.90 1021.39 1020.88 1020.29 1019.86 1019.55 1019.34 1019.23 1019.03 1018.82 1018.79 1018.73 1018.68 1018.57 1018.63 1018.60 1018.50 1018.58 1018.71 1018.66 1018.52 1018.35 1018.41 1018.28 1018.23 1018.10 1018.03 1017.92 1017.81 1017.82 1017.60 1017.36 1017.23 1017.03
1024.90 1025.37 1025.95 1027.18 1028.65 1029.06 1028.29 1024.75 1022.73 1022.48 1022.27 1022.11 1022.11 1021.80 1021.37 1021.00 1020.93 1020.77 1020.40 1020.05 1019.67 1019.44 1019.11 1018.85 1018.53 1018.42 1018.22 1018.12 1018.25 1018.12 1018.15 1018.13 1018.23 1018.16 1017.97 1017.95 1018.01 1018.04 1017.97 1017.86 1017.77 1017.77 1017.82 1017.78 1017.75 1017.58 1017.44 1017.23 1016.83
Thickness
5719 5724 5726 5725 5697 5685 5688 5703 5715 5719 5721 5725 5730 5730 5727 5717 5722 5707 5728 5731 5732 5732 5730 5729 5727 5726 5726 5726 5725 5725 5725 5724 5723 5722 5722 5723 5722 5721 5721 5720 5719 5718 5717 5716 5715 5714 5712 5711 5710
5714 5717 5716 5701 5675 5671 5682 5702 5710 5716 5717 5722 5724 5723 5717 5711 5723 5723 5724 5731 5733 5733 5731 5729 5727 5726 5725 5725 5725 5725 5725 5724 5722 5721 5721 5721 5721 5721 5719 5718 5717 5716 5715 5714 5713 5711 5710 5709 5707
5708 5711 5699 5684 5664 5672 5683 5703 5711 5713 5716 5721 5716 5716 5716 5713 5722 5722 5728 5731 5732 5733 5732 5729 5727 5726 5726 5725 5724 5723 5723 5723 5721 5721 5720 5719 5718 5718 5718 5717 5716 5714 5713 5711 5710 5709 5708 5707 5706
5697 5697 5688 5673 5674 5691 5699 5706 5707 5705 5713 5716 5715 5707 5712 5718 5721 5723 5728 5730 5730 5731 5731 5728 5726 5725 5724 5723 5722 5721 5721 5720 5720 5719 5718 5717 5716 5716 5716 5715 5714 5713 5711 5709 5708 5706 5705 5704 5703
5688 5685 5663 5663 5681 5694 5698 5704 5702 5705 5705 5708 5713 5703 5707 5717 5722 5723 5725 5727 5728 5727 5727 5725 5723 5722 5721 5722 5720 5719 5718 5718 5717 5717 5716 5715 5714 5713 5712 5712 5711 5710 5708 5707 5705 5704 5702 5701 5700
5674 5675 5657 5658 5678 5693 5696 5699 5702 5700 5703 5703 5705 5706 5707 5716 5717 5719 5721 5722 5724 5724 5723 5721 5719 5718 5717 5718 5717 5716 5715 5715 5714 5713 5712 5711 5710 5709 5708 5708 5706 5705 5705 5703 5702 5701 5699 5698 5697
5670 5665 5662 5664 5672 5685 5690 5699 5693 5694 5697 5697 5706 5699 5705 5711 5716 5716 5718 5719 5719 5719 5719 5715 5714 5713 5712 5713 5713 5712 5711 5710 5710 5708 5707 5707 5706 5706 5704 5703 5703 5702 5702 5701 5700 5698 5697 5696 5695
5666 5662 5656 5666 5668 5678 5690 5694 5693 5695 5692 5698 5706 5698 5702 5710 5712 5712 5713 5714 5714 5713 5713 5709 5709 5708 5706 5707 5707 5706 5705 5704 5704 5703 5702 5703 5703 5702 5701 5700 5700 5700 5700 5700 5699 5698 5697 5696 5695
5667 5647 5646 5663 5671 5681 5690 5691 5689 5692 5691 5695 5700 5705 5711 5710 5708 5707 5707 5708 5708 5708 5707 5704 5704 5704 5703 5702 5702 5702 5701 5700 5699 5698 5698 5698 5697 5697 5696 5696 5696 5696 5696 5696 5696 5696 5695 5695 5693
5655 5645 5656 5670 5680 5682 5688 5693 5687 5685 5687 5690 5694 5702 5705 5705 5703 5702 5701 5702 5703 5703 5701 5700 5700 5699 5698 5698 5697 5696 5695 5694 5693 5693 5693 5693 5692 5692 5691 5691 5691 5691 5691 5691 5691 5691 5690 5690 5689
5653 5651 5661 5670 5680 5687 5685 5684 5687 5684 5685 5690 5694 5696 5698 5696 5696 5697 5697 5699 5700 5699 5698 5696 5696 5694 5693 5692 5691 5691 5689 5688 5688 5688 5688 5688 5688 5687 5686 5686 5685 5685 5684 5684 5683 5683 5683 5683 5682
5644 5647 5658 5665 5677 5683 5685 5683 5680 5686 5688 5690 5694 5694 5695 5693 5692 5692 5693 5696 5697 5696 5695 5692 5690 5689 5687 5686 5685 5684 5683 5682 5682 5682 5682 5682 5682 5681 5680 5679 5678 5677 5677 5677 5676 5676 5675 5674 5674
5640 5644 5649 5656 5666 5671 5679 5676 5679 5678 5682 5688 5690 5691 5689 5689 5690 5690 5692 5693 5693 5691 5690 5687 5685 5683 5682 5680 5679 5679 5678 5676 5675 5675 5675 5675 5674 5673 5672 5671 5671 5669 5669 5668 5668 5667 5666 5665 5664
5633 5636 5641 5648 5657 5663 5671 5672 5681 5677 5679 5681 5684 5685 5685 5688 5688 5687 5688 5688 5687 5687 5685 5681 5678 5677 5676 5674 5673 5673 5672 5671 5670 5670 5669 5668 5667 5665 5664 5663 5662 5661 5660 5660 5659 5658 5657 5656 5656
5628 5630 5637 5636 5646 5659 5666 5668 5672 5675 5676 5677 5679 5682 5680 5683 5684 5685 5687 5685 5683 5681 5679 5675 5673 5671 5669 5667 5667 5667 5666 5665 5664 5664 5663 5662 5660 5659 5657 5655 5654 5653 5652 5651 5650 5649 5648 5647 5646
5619 5618 5621 5634 5639 5655 5664 5651 5669 5668 5672 5673 5675 5676 5675 5680 5682 5682 5682 5680 5678 5676 5673 5670 5668 5665 5662 5661 5661 5661 5660 5659 5658 5657 5656 5655 5653 5652 5650 5648 5646 5644 5643 5643 5642 5641 5639 5637 5636
5591 5603 5613 5631 5632 5645 5656 5658 5665 5663 5665 5667 5668 5668 5671 5674 5676 5677 5679 5676 5674 5671 5669 5665 5662 5659 5657 5656 5656 5656 5654 5653 5651 5650 5649 5647 5645 5643 5641 5639 5637 5636 5635 5635 5633 5632 5629 5628 5628
5600 5595 5606 5618 5627 5638 5647 5654 5659 5661 5659 5660 5663 5663 5663 5666 5671 5675 5674 5671 5669 5666 5663 5659 5656 5654 5652 5651 5650 5649 5647 5645 5643 5642 5640 5639 5636 5634 5633 5631 5629 5628 5627 5626 5624 5622 5621 5620 5619
5601 5602 5601 5611 5619 5630 5632 5639 5650 5659 5659 5656 5656 5657 5660 5663 5668 5671 5670 5667 5663 5659 5656 5654 5652 5650 5648 5645 5641 5639 5636 5635 5634 5633 5631 5629 5626 5625 5624 5622 5622 5620 5618 5616 5614 5613 5612 5613 5615
5597 5596 5598 5607 5613 5627 5619 5637 5648 5655 5657 5658 5658 5657 5656 5660 5662 5666 5665 5659 5656 5653 5648 5647 5646 5644 5642 5639 5635 5631 5628 5626 5623 5622 5620 5619 5617 5617 5617 5615 5613 5612 5610 5608 5606 5606 5605 5607 5609
5570 5586 5597 5608 5608 5601 5604 5632 5650 5652 5653 5658 5658 5656 5654 5655 5656 5657 5656 5651 5646 5644 5642 5640 5639 5637 5634 5631 5627 5623 5620 5617 5614 5611 5612 5611 5609 5608 5607 5605 5604 5603 5602 5602 5601 5601 5600 5598 5599
5590 5584 5597 5599 5574 5590 5583 5600 5636 5636 5645 5651 5645 5644 5647 5649 5650 5650 5648 5645 5641 5639 5636 5633 5632 5630 5626 5623 5618 5612 5608 5604 5602 5601 5603 5603 5602 5600 5598 5597 5596 5596 5597 5598 5598 5598 5596 5592 5591
5580 5581 5583 5578 5543 5554 5580 5568 5623 5628 5640 5643 5639 5639 5642 5642 5645 5645 5639 5637 5636 5633 5630 5627 5624 5622 5617 5612 5607 5602 5599 5597 5595 5594 5596 5596 5594 5593 5591 5590 5590 5592 5594 5594 5594 5593 5591 5589 5587
5567 5580 5570 5552 5526 5544 5547 5550 5590 5621 5629 5630 5633 5630 5633 5633 5633 5633 5632 5630 5627 5624 5622 5618 5615 5613 5608 5603 5600 5596 5592 5589 5586 5586 5587 5589 5588 5587 5585 5584 5586 5587 5590 5590 5591 5589 5586 5585 5583
5570 5564 5507 5549 5525 5554 5498 5526 5596 5619 5620 5621 5620 5620 5621 5621 5619 5619 5620 5619 5617 5614 5613 5608 5606 5603 5600 5595 5592 5589 5585 5582 5578 5578 5578 5581 5582 5583 5583 5583 5582 5582 5584 5585 5586 5585 5583 5581 5578
5554 5550 5529 5555 5532 5544 5536 5559 5599 5607 5610 5614 5612 5607 5608 5608 5606 5608 5608 5607 5606 5605 5604 5600 5599 5597 5593 5588 5585 5580 5576 5573 5572 5571 5571 5574 5575 5577 5577 5578 5579 5581 5580 5581 5580 5581 5580 5577 5575
5565 5534 5558 5519 5498 5514 5535 5576 5598 5607 5607 5604 5598 5599 5597 5597 5597 5598 5599 5598 5598 5598 5597 5594 5590 5589 5586 5581 5577 5573 5567 5566 5566 5566 5566 5568 5572 5574 5576 5575 5574 5577 5578 5577 5576 5577 5577 5574 5572
5561 5551 5552 5517 5543 5545 5539 5537 5562 5583 5595 5593 5589 5587 5587 5587 5588 5589 5589 5590 5592 5590 5588 5585 5584 5582 5580 5576 5572 5568 5565 5565 5564 5564 5565 5567 5569 5571 5573 5574 5573 5574 5575 5575 5573 5574 5574 5572 5568
5538 5537 5536 5532 5526 5520 5518 5554 5557 5558 5580 5585 5584 5578 5575 5575 5577 5580 5581 5583 5583 5581 5579 5578 5579 5577 5575 5571 5570 5566 5565 5566 5565 5564 5565 5568 5570 5570 5571 5572 5573 5573 5572 5572 5569 5570 5570 5569 5567
5548 5550 5543 5531 5533 5480 5479 5536 5575 5570 5571 5573 5569 5570 5574 5574 5572 5571 5573 5573 5575 5575 5574 5574 5574 5573 5573 5571 5568 5565 5564 5564 5564 5564 5567 5569 5569 5570 5570 5571 5572 5571 5569 5568 5566 5565 5565 5564 5565